Time,TemperatureF,DewpointF,PressureIn,WindDirection,WindDirectionDegrees,WindSpeedMPH,WindSpeedGustMPH,Humidity,HourlyPrecipIn,Conditions,Clouds,dailyrainin,SolarRadiationWatts/m^2,SoftwareType,DateUTC
2013-08-09 00:00:00,77.0,72.8,29.90,North,32767,-999.0,0.0,87,0.00,,,0.00,0,Wunderground v.1.15,2013-08-09 04:00:00,
2013-08-09 00:05:00,76.7,72.9,29.90,North,32767,-999.0,0.0,88,0.00,,,0.00,0,Wunderground v.1.15,2013-08-09 04:05:00,
2013-08-09 00:10:00,76.5,72.7,29.90,North,32767,-999.0,0.0,88,0.00,,,0.00,0,Wunderground v.1.15,2013-08-09 04:10:00,
2013-08-09 00:15:00,76.3,72.8,29.90,North,32767,-999.0,0.0,89,0.00,,,0.00,0,Wunderground v.1.15,2013-08-09 04:15:00,
2013-08-09 00:25:00,76.1,72.6,29.89,North,32767,-999.0,0.0,89,0.00,,,0.00,0,Wunderground v.1.15,2013-08-09 04:25:00,
2013-08-09 00:30:00,76.1,72.6,29.89,North,32767,-999.0,0.0,89,0.00,,,0.00,0,Wunderground v.1.15,2013-08-09 04:30:00,
2013-08-09 00:35:00,76.1,72.6,29.89,North,32767,-999.0,0.0,89,0.00,,,0.00,0,Wunderground v.1.15,2013-08-09 04:35:00,
2013-08-09 00:40:00,75.8,72.7,29.89,North,32767,-999.0,0.0,90,0.00,,,0.00,0,Wunderground v.1.15,2013-08-09 04:40:00,
2013-08-09 00:50:00,75.6,72.5,29.89,North,32767,-999.0,0.0,90,0.00,,,0.00,0,Wunderground v.1.15,2013-08-09 04:50:00,
2013-08-09 00:55:00,75.6,72.8,29.89,North,32767,-999.0,0.0,91,0.00,,,0.00,0,Wunderground v.1.15,2013-08-09 04:55:00,
2013-08-09 01:00:00,75.4,72.6,29.89,North,32767,-999.0,0.0,91,0.00,,,0.00,0,Wunderground v.1.15,2013-08-09 05:00:00,
2013-08-09 01:05:00,75.4,72.6,29.89,North,32767,-999.0,0.0,91,0.00,,,0.00,0,Wunderground v.1.15,2013-08-09 05:05:00,
2013-08-09 01:15:00,75.3,73.1,29.89,North,32767,-999.0,0.0,93,0.00,,,0.00,0,Wunderground v.1.15,2013-08-09 05:15:00,
2013-08-09 01:20:00,75.3,73.1,29.89,North,32767,-999.0,0.0,93,0.00,,,0.00,0,Wunderground v.1.15,2013-08-09 05:20:00,
2013-08-09 01:30:00,74.9,72.7,29.89,North,32767,-999.0,0.0,93,0.00,,,0.00,0,Wunderground v.1.15,2013-08-09 05:30:00,
2013-08-09 01:35:00,74.9,72.7,29.90,North,32767,-999.0,0.0,93,0.00,,,0.00,0,Wunderground v.1.15,2013-08-09 05:35:00,
2013-08-09 01:40:00,74.9,72.7,29.90,North,32767,-999.0,0.0,93,0.00,,,0.00,0,Wunderground v.1.15,2013-08-09 05:40:00,
2013-08-09 01:50:00,74.6,72.8,29.89,North,32767,-999.0,0.0,94,0.00,,,0.00,0,Wunderground v.1.15,2013-08-09 05:50:00,
2013-08-09 01:55:00,74.4,72.6,29.89,North,32767,-999.0,0.0,94,0.00,,,0.00,0,Wunderground v.1.15,2013-08-09 05:55:00,
2013-08-09 02:00:00,74.4,72.9,29.89,North,32767,-999.0,0.0,95,0.00,,,0.00,0,Wunderground v.1.15,2013-08-09 06:00:00,
2013-08-09 02:10:00,74.0,72.5,29.89,North,32767,-999.0,0.0,95,0.00,,,0.00,0,Wunderground v.1.15,2013-08-09 06:10:00,
2013-08-09 02:15:00,74.0,72.5,29.89,North,32767,-999.0,0.0,95,0.00,,,0.00,0,Wunderground v.1.15,2013-08-09 06:15:00,
2013-08-09 02:20:00,74.0,72.5,29.89,North,32767,-999.0,0.0,95,0.00,,,0.00,0,Wunderground v.1.15,2013-08-09 06:20:00,
2013-08-09 02:30:00,73.9,72.4,29.89,North,32767,-999.0,0.0,95,0.00,,,0.00,0,Wunderground v.1.15,2013-08-09 06:30:00,
2013-08-09 02:35:00,73.7,72.2,29.88,North,32767,-999.0,0.0,95,0.00,,,0.00,0,Wunderground v.1.15,2013-08-09 06:35:00,
2013-08-09 02:40:00,73.7,72.2,29.88,North,32767,-999.0,0.0,95,0.00,,,0.00,0,Wunderground v.1.15,2013-08-09 06:40:00,
2013-08-09 02:45:00,73.7,72.2,29.88,North,32767,-999.0,0.0,95,0.00,,,0.00,0,Wunderground v.1.15,2013-08-09 06:45:00,
2013-08-09 02:50:00,73.7,72.2,29.88,North,32767,-999.0,0.0,95,0.00,,,0.00,0,Wunderground v.1.15,2013-08-09 06:50:00,
2013-08-09 02:55:00,73.5,72.0,29.88,North,32767,-999.0,0.0,95,0.00,,,0.00,0,Wunderground v.1.15,2013-08-09 06:55:00,
2013-08-09 03:05:00,73.5,72.0,29.88,North,32767,-999.0,0.0,95,0.00,,,0.00,0,Wunderground v.1.15,2013-08-09 07:05:00,
2013-08-09 03:10:00,73.5,72.0,29.88,North,32767,-999.0,0.0,95,0.00,,,0.00,0,Wunderground v.1.15,2013-08-09 07:10:00,
2013-08-09 03:15:00,73.5,72.3,29.88,North,32767,-999.0,0.0,96,0.00,,,0.00,0,Wunderground v.1.15,2013-08-09 07:15:00,
2013-08-09 03:20:00,73.5,72.3,29.88,North,32767,-999.0,0.0,96,0.00,,,0.00,0,Wunderground v.1.15,2013-08-09 07:20:00,
2013-08-09 03:30:00,73.5,72.3,29.88,North,32767,-999.0,0.0,96,0.00,,,0.00,0,Wunderground v.1.15,2013-08-09 07:30:00,
2013-08-09 03:35:00,73.5,72.6,29.88,North,32767,-999.0,0.0,97,0.00,,,0.00,0,Wunderground v.1.15,2013-08-09 07:35:00,
2013-08-09 03:40:00,73.5,72.6,29.88,North,32767,-999.0,0.0,97,0.00,,,0.00,0,Wunderground v.1.15,2013-08-09 07:40:00,
2013-08-09 03:50:00,73.5,72.6,29.89,North,32767,-999.0,0.0,97,0.00,,,0.00,0,Wunderground v.1.15,2013-08-09 07:50:00,
2013-08-09 03:55:00,73.5,72.6,29.89,North,32767,-999.0,0.0,97,0.00,,,0.00,0,Wunderground v.1.15,2013-08-09 07:55:00,
2013-08-09 04:05:00,73.7,73.4,29.89,North,32767,-999.0,0.0,99,0.00,,,0.00,0,Wunderground v.1.15,2013-08-09 08:05:00,
2013-08-09 04:10:00,73.7,73.7,29.89,North,32767,-999.0,0.0,100,0.00,,,0.00,0,Wunderground v.1.15,2013-08-09 08:10:00,
2013-08-09 04:20:00,73.7,73.7,29.89,North,32767,-999.0,0.0,100,0.00,,,0.00,0,Wunderground v.1.15,2013-08-09 08:20:00,
2013-08-09 04:25:00,73.7,73.7,29.89,North,32767,-999.0,0.0,100,0.00,,,0.00,0,Wunderground v.1.15,2013-08-09 08:25:00,
2013-08-09 04:30:00,73.7,73.7,29.89,North,32767,-999.0,0.0,100,0.00,,,0.00,0,Wunderground v.1.15,2013-08-09 08:30:00,
2013-08-09 04:40:00,73.7,73.7,29.89,North,32767,-999.0,0.0,100,0.00,,,0.00,0,Wunderground v.1.15,2013-08-09 08:40:00,
2013-08-09 04:45:00,73.7,73.7,29.89,North,32767,-999.0,0.0,100,0.00,,,0.00,0,Wunderground v.1.15,2013-08-09 08:45:00,
2013-08-09 04:55:00,73.7,73.7,29.89,North,32767,-999.0,0.0,100,0.00,,,0.00,0,Wunderground v.1.15,2013-08-09 08:55:00,
2013-08-09 05:00:00,73.7,73.7,29.89,North,32767,-999.0,0.0,100,0.00,,,0.00,0,Wunderground v.1.15,2013-08-09 09:00:00,
2013-08-09 05:10:00,73.5,73.5,29.89,North,32767,-999.0,0.0,100,0.00,,,0.00,0,Wunderground v.1.15,2013-08-09 09:10:00,
2013-08-09 05:20:00,73.5,73.5,29.89,North,32767,-999.0,0.0,100,0.00,,,0.00,0,Wunderground v.1.15,2013-08-09 09:20:00,
2013-08-09 05:25:00,73.5,73.5,29.89,North,32767,-999.0,0.0,100,0.00,,,0.00,0,Wunderground v.1.15,2013-08-09 09:25:00,
2013-08-09 05:35:00,73.5,73.5,29.89,North,32767,-999.0,0.0,100,0.00,,,0.00,0,Wunderground v.1.15,2013-08-09 09:35:00,
2013-08-09 05:40:00,73.3,73.3,29.89,North,32767,-999.0,0.0,100,0.00,,,0.00,0,Wunderground v.1.15,2013-08-09 09:40:00,
2013-08-09 05:50:00,73.3,73.3,29.90,North,32767,-999.0,0.0,100,0.00,,,0.00,0,Wunderground v.1.15,2013-08-09 09:50:00,
2013-08-09 05:55:00,73.3,73.3,29.90,North,32767,-999.0,0.0,100,0.00,,,0.00,0,Wunderground v.1.15,2013-08-09 09:55:00,
2013-08-09 06:00:00,73.2,73.2,29.90,North,32767,-999.0,0.0,100,0.00,,,0.00,0,Wunderground v.1.15,2013-08-09 10:00:00,
2013-08-09 06:05:00,73.2,73.2,29.90,North,32767,-999.0,0.0,100,0.00,,,0.00,0,Wunderground v.1.15,2013-08-09 10:05:00,
2013-08-09 06:15:00,73.2,73.2,29.90,North,32767,-999.0,0.0,100,0.00,,,0.00,0,Wunderground v.1.15,2013-08-09 10:15:00,
2013-08-09 06:20:00,73.0,73.0,29.90,North,32767,-999.0,0.0,100,0.00,,,0.00,0,Wunderground v.1.15,2013-08-09 10:20:00,
2013-08-09 06:30:00,73.0,73.0,29.90,North,32767,-999.0,0.0,100,0.00,,,0.00,0,Wunderground v.1.15,2013-08-09 10:30:00,
2013-08-09 06:35:00,73.0,73.0,29.91,North,32767,-999.0,0.0,100,0.00,,,0.00,0,Wunderground v.1.15,2013-08-09 10:35:00,
2013-08-09 06:40:00,73.0,73.0,29.91,North,32767,-999.0,0.0,100,0.00,,,0.00,0,Wunderground v.1.15,2013-08-09 10:40:00,
2013-08-09 06:45:00,73.0,73.0,29.91,North,32767,-999.0,0.0,100,0.00,,,0.00,0,Wunderground v.1.15,2013-08-09 10:45:00,
2013-08-09 06:55:00,73.0,73.0,29.91,North,32767,-999.0,0.0,100,0.00,,,0.00,5,Wunderground v.1.15,2013-08-09 10:55:00,
2013-08-09 07:00:00,73.0,73.0,29.91,North,32767,-999.0,0.0,100,0.00,,,0.00,5,Wunderground v.1.15,2013-08-09 11:00:00,
2013-08-09 07:05:00,73.0,73.0,29.91,North,32767,-999.0,0.0,100,0.00,,,0.00,7,Wunderground v.1.15,2013-08-09 11:05:00,
2013-08-09 07:15:00,73.0,73.0,29.91,North,32767,-999.0,0.0,100,0.00,,,0.00,11,Wunderground v.1.15,2013-08-09 11:15:00,
2013-08-09 07:20:00,73.0,73.0,29.91,North,32767,-999.0,0.0,100,0.00,,,0.00,12,Wunderground v.1.15,2013-08-09 11:20:00,
2013-08-09 07:30:00,73.2,73.2,29.91,North,32767,-999.0,0.0,100,0.00,,,0.00,18,Wunderground v.1.15,2013-08-09 11:30:00,
2013-08-09 07:40:00,73.3,73.3,29.92,North,32767,-999.0,0.0,100,0.00,,,0.00,14,Wunderground v.1.15,2013-08-09 11:40:00,
2013-08-09 07:50:00,73.5,73.5,29.91,North,32767,-999.0,0.0,100,0.00,,,0.00,18,Wunderground v.1.15,2013-08-09 11:50:00,
2013-08-09 07:55:00,73.5,73.5,29.91,North,32767,-999.0,0.0,100,0.00,,,0.00,19,Wunderground v.1.15,2013-08-09 11:55:00,
2013-08-09 08:05:00,73.7,73.7,29.91,North,32767,-999.0,0.0,100,0.00,,,0.00,28,Wunderground v.1.15,2013-08-09 12:05:00,
2013-08-09 08:15:00,74.0,74.0,29.91,North,32767,-999.0,0.0,100,0.00,,,0.00,35,Wunderground v.1.15,2013-08-09 12:15:00,
2013-08-09 08:25:00,74.4,74.4,29.92,North,32767,-999.0,0.0,100,0.00,,,0.00,42,Wunderground v.1.15,2013-08-09 12:25:00,
2013-08-09 08:30:00,74.4,74.4,29.92,North,32767,-999.0,0.0,100,0.00,,,0.00,44,Wunderground v.1.15,2013-08-09 12:30:00,
2013-08-09 08:40:00,74.7,74.7,29.92,North,32767,-999.0,0.0,100,0.00,,,0.00,44,Wunderground v.1.15,2013-08-09 12:40:00,
2013-08-09 08:45:00,74.9,74.9,29.92,North,32767,-999.0,0.0,100,0.00,,,0.00,37,Wunderground v.1.15,2013-08-09 12:45:00,
2013-08-09 08:55:00,75.3,75.3,29.92,North,32767,-999.0,0.0,100,0.00,,,0.00,48,Wunderground v.1.15,2013-08-09 12:55:00,
2013-08-09 09:05:00,75.4,75.4,29.92,North,32767,-999.0,0.0,100,0.00,,,0.00,51,Wunderground v.1.15,2013-08-09 13:05:00,
2013-08-09 09:10:00,75.6,75.6,29.92,North,32767,-999.0,0.0,100,0.00,,,0.00,62,Wunderground v.1.15,2013-08-09 13:10:00,
2013-08-09 09:20:00,76.0,76.0,29.92,North,32767,-999.0,0.0,100,0.00,,,0.00,58,Wunderground v.1.15,2013-08-09 13:20:00,
2013-08-09 09:25:00,76.3,75.4,29.92,North,32767,-999.0,0.0,97,0.00,,,0.00,58,Wunderground v.1.15,2013-08-09 13:25:00,
2013-08-09 09:35:00,76.7,75.8,29.92,WNW,296,0.0,0.0,97,0.00,,,0.00,58,Wunderground v.1.15,2013-08-09 13:35:00,
2013-08-09 09:40:00,76.7,75.2,29.92,NW,304,0.0,0.0,95,0.00,,,0.00,58,Wunderground v.1.15,2013-08-09 13:40:00,
2013-08-09 09:50:00,77.2,75.3,29.92,NE,47,0.0,0.0,94,0.00,,,0.00,79,Wunderground v.1.15,2013-08-09 13:50:00,
2013-08-09 09:55:00,77.2,75.3,29.92,NE,47,0.0,0.0,94,0.00,,,0.00,79,Wunderground v.1.15,2013-08-09 13:55:00,
2013-08-09 10:05:00,78.1,75.9,29.92,North,0,0.0,0.0,93,0.00,,,0.00,239,Wunderground v.1.15,2013-08-09 14:05:00,
2013-08-09 10:10:00,78.3,75.5,29.92,North,0,0.0,0.0,91,0.00,,,0.00,99,Wunderground v.1.15,2013-08-09 14:10:00,
2013-08-09 10:20:00,79.0,75.8,29.93,North,0,0.0,0.0,90,0.00,,,0.00,120,Wunderground v.1.15,2013-08-09 14:20:00,
2013-08-09 10:30:00,79.8,76.3,29.93,ENE,65,0.0,0.0,89,0.00,,,0.00,120,Wunderground v.1.15,2013-08-09 14:30:00,
2013-08-09 10:35:00,79.8,76.3,29.93,North,0,0.0,0.0,89,0.00,,,0.00,84,Wunderground v.1.15,2013-08-09 14:35:00,
2013-08-09 10:45:00,80.3,76.8,29.93,North,357,0.0,0.0,89,0.00,,,0.00,55,Wunderground v.1.15,2013-08-09 14:45:00,
2013-08-09 10:50:00,80.3,76.4,29.93,North,357,0.0,0.0,88,0.00,,,0.00,55,Wunderground v.1.15,2013-08-09 14:50:00,
2013-08-09 11:00:00,80.7,76.1,29.93,North,359,0.0,0.0,86,0.00,,,0.00,111,Wunderground v.1.15,2013-08-09 15:00:00,
2013-08-09 11:05:00,80.9,76.3,29.93,NNW,333,0.0,0.0,86,0.00,,,0.00,134,Wunderground v.1.15,2013-08-09 15:05:00,
2013-08-09 11:15:00,81.4,76.1,29.93,NNW,333,0.0,0.0,84,0.00,,,0.00,99,Wunderground v.1.15,2013-08-09 15:15:00,
2013-08-09 11:20:00,81.6,75.9,29.93,WSW,251,0.0,0.0,83,0.00,,,0.00,99,Wunderground v.1.15,2013-08-09 15:20:00,
2013-08-09 11:30:00,82.0,76.3,29.93,NW,325,0.0,0.0,83,0.00,,,0.00,99,Wunderground v.1.15,2013-08-09 15:30:00,
2013-08-09 11:35:00,82.2,76.5,29.93,WNW,301,0.0,0.0,83,0.00,,,0.00,99,Wunderground v.1.15,2013-08-09 15:35:00,
2013-08-09 11:45:00,82.6,75.8,29.93,SW,234,0.0,0.0,80,0.00,,,0.00,141,Wunderground v.1.15,2013-08-09 15:45:00,
2013-08-09 11:50:00,83.0,76.6,29.92,WSW,237,0.0,0.0,81,0.00,,,0.00,141,Wunderground v.1.15,2013-08-09 15:50:00,
2013-08-09 12:00:00,83.2,76.0,29.92,WSW,239,0.0,0.0,79,0.00,,,0.00,132,Wunderground v.1.15,2013-08-09 16:00:00,
2013-08-09 12:05:00,83.4,76.2,29.92,SE,126,0.0,0.0,79,0.00,,,0.00,132,Wunderground v.1.15,2013-08-09 16:05:00,
2013-08-09 12:10:00,83.6,76.4,29.92,NE,55,0.0,0.0,79,0.00,,,0.00,132,Wunderground v.1.15,2013-08-09 16:10:00,
2013-08-09 12:20:00,83.8,77.0,29.92,NNW,340,0.0,0.0,80,0.00,,,0.00,190,Wunderground v.1.15,2013-08-09 16:20:00,
2013-08-09 12:30:00,83.6,77.1,29.92,NNW,336,0.0,0.0,81,0.00,,,0.00,188,Wunderground v.1.15,2013-08-09 16:30:00,
2013-08-09 12:35:00,83.6,77.1,29.92,NNW,339,0.0,0.0,81,0.00,,,0.00,165,Wunderground v.1.15,2013-08-09 16:35:00,
2013-08-09 12:45:00,84.1,77.6,29.92,NW,320,0.0,0.0,81,0.00,,,0.00,150,Wunderground v.1.15,2013-08-09 16:45:00,
2013-08-09 12:55:00,84.7,76.7,29.91,NW,320,0.0,0.0,77,0.00,,,0.00,155,Wunderground v.1.15,2013-08-09 16:55:00,
2013-08-09 13:00:00,84.7,77.1,29.91,NW,322,0.0,0.0,78,0.00,,,0.00,385,Wunderground v.1.15,2013-08-09 17:00:00,
2013-08-09 13:10:00,84.5,76.9,29.91,NW,322,0.0,0.0,78,0.00,,,0.00,97,Wunderground v.1.15,2013-08-09 17:10:00,
2013-08-09 13:20:00,84.9,77.3,29.91,NW,325,0.0,0.0,78,0.00,,,0.00,137,Wunderground v.1.15,2013-08-09 17:20:00,
2013-08-09 13:25:00,85.3,76.9,29.91,NW,325,0.0,0.0,76,0.00,,,0.00,65,Wunderground v.1.15,2013-08-09 17:25:00,
2013-08-09 13:30:00,85.3,77.3,29.91,NNW,340,0.0,0.0,77,0.00,,,0.00,72,Wunderground v.1.15,2013-08-09 17:30:00,
2013-08-09 13:40:00,85.5,78.6,29.91,North,359,0.0,0.0,80,0.00,,,0.00,95,Wunderground v.1.15,2013-08-09 17:40:00,
2013-08-09 13:45:00,85.7,76.5,29.91,North,359,0.0,0.0,74,0.00,,,0.00,46,Wunderground v.1.15,2013-08-09 17:45:00,
2013-08-09 13:50:00,85.5,76.7,29.91,North,359,0.0,0.0,75,0.00,,,0.00,46,Wunderground v.1.15,2013-08-09 17:50:00,
2013-08-09 14:00:00,85.1,77.1,29.91,WSW,254,0.0,0.0,77,0.00,,,0.00,48,Wunderground v.1.15,2013-08-09 18:00:00,
2013-08-09 14:10:00,85.7,78.4,29.91,NNE,24,0.0,0.0,79,0.00,,,0.00,48,Wunderground v.1.15,2013-08-09 18:10:00,
2013-08-09 14:15:00,86.1,78.4,29.91,North,354,0.0,0.0,78,0.00,,,0.00,716,Wunderground v.1.15,2013-08-09 18:15:00,
2013-08-09 14:25:00,86.5,78.4,29.90,NW,311,0.0,0.0,77,0.00,,,0.00,750,Wunderground v.1.15,2013-08-09 18:25:00,
2013-08-09 14:35:00,86.5,78.4,29.90,NNW,347,0.0,0.0,77,0.00,,,0.00,750,Wunderground v.1.15,2013-08-09 18:35:00,
2013-08-09 14:40:00,86.5,78.4,29.90,NW,323,0.0,0.0,77,0.00,,,0.00,750,Wunderground v.1.15,2013-08-09 18:40:00,
2013-08-09 14:50:00,86.7,78.2,29.90,WNW,296,0.0,0.0,76,0.00,,,0.00,135,Wunderground v.1.15,2013-08-09 18:50:00,
2013-08-09 14:55:00,86.7,78.2,29.90,NNW,335,0.0,0.0,76,0.00,,,0.00,135,Wunderground v.1.15,2013-08-09 18:55:00,
2013-08-09 15:05:00,86.7,77.8,29.89,WNW,292,0.0,0.0,75,0.00,,,0.00,130,Wunderground v.1.15,2013-08-09 19:05:00,
2013-08-09 15:15:00,86.3,77.0,29.89,WNW,294,0.0,0.0,74,0.00,,,0.00,164,Wunderground v.1.15,2013-08-09 19:15:00,
2013-08-09 15:25:00,85.9,77.8,29.89,NNW,344,0.0,0.0,77,0.00,,,0.00,109,Wunderground v.1.15,2013-08-09 19:25:00,
2013-08-09 15:30:00,85.3,77.7,29.89,NNW,343,0.0,0.0,78,0.00,,,0.00,97,Wunderground v.1.15,2013-08-09 19:30:00,
2013-08-09 15:40:00,84.5,76.9,29.88,NNW,344,0.0,0.0,78,0.00,,,0.00,88,Wunderground v.1.15,2013-08-09 19:40:00,
2013-08-09 15:50:00,84.3,77.1,29.88,ENE,62,0.0,0.0,79,0.00,,,0.00,86,Wunderground v.1.15,2013-08-09 19:50:00,
2013-08-09 15:55:00,84.5,77.3,29.88,NW,322,0.0,0.0,79,0.00,,,0.00,86,Wunderground v.1.15,2013-08-09 19:55:00,
2013-08-09 16:05:00,84.5,77.6,29.88,NNW,342,0.0,0.0,80,0.00,,,0.00,118,Wunderground v.1.15,2013-08-09 20:05:00,
2013-08-09 16:15:00,84.7,78.2,29.88,NNW,344,0.0,0.0,81,0.00,,,0.00,91,Wunderground v.1.15,2013-08-09 20:15:00,
2013-08-09 16:20:00,84.7,78.2,29.87,NNE,17,0.0,0.0,81,0.00,,,0.00,106,Wunderground v.1.15,2013-08-09 20:20:00,
2013-08-09 16:30:00,84.3,77.5,29.87,NNW,347,0.0,0.0,80,0.00,,,0.00,106,Wunderground v.1.15,2013-08-09 20:30:00,
2013-08-09 16:35:00,84.1,77.3,29.86,NNW,347,0.0,0.0,80,0.00,,,0.00,97,Wunderground v.1.15,2013-08-09 20:35:00,
2013-08-09 16:45:00,84.0,77.5,29.86,North,352,0.0,0.0,81,0.00,,,0.00,97,Wunderground v.1.15,2013-08-09 20:45:00,
2013-08-09 16:50:00,83.8,77.3,29.86,North,32767,-999.0,0.0,81,0.00,,,0.00,18,Wunderground v.1.15,2013-08-09 20:50:00,
2013-08-09 16:55:00,83.8,77.3,29.86,North,32767,-999.0,0.0,81,0.00,,,0.00,14,Wunderground v.1.15,2013-08-09 20:55:00,
2013-08-09 17:00:00,83.2,77.5,29.86,North,32767,-999.0,0.0,83,0.00,,,0.00,18,Wunderground v.1.15,2013-08-09 21:00:00,
2013-08-09 17:10:00,82.4,76.7,29.87,North,32767,-999.0,0.0,83,0.00,,,0.00,44,Wunderground v.1.15,2013-08-09 21:10:00,
2013-08-09 17:15:00,82.2,76.9,29.87,North,32767,-999.0,0.0,84,0.00,,,0.00,51,Wunderground v.1.15,2013-08-09 21:15:00,
2013-08-09 17:25:00,81.8,76.5,29.88,North,32767,-999.0,0.0,84,0.00,,,0.00,51,Wunderground v.1.15,2013-08-09 21:25:00,
2013-08-09 17:30:00,81.6,76.6,29.88,North,32767,-999.0,0.0,85,0.00,,,0.00,49,Wunderground v.1.15,2013-08-09 21:30:00,
2013-08-09 17:40:00,81.6,76.6,29.88,North,32767,-999.0,0.0,85,0.00,,,0.00,49,Wunderground v.1.15,2013-08-09 21:40:00,
2013-08-09 17:45:00,81.8,76.8,29.88,North,32767,-999.0,0.0,85,0.00,,,0.00,49,Wunderground v.1.15,2013-08-09 21:45:00,
2013-08-09 17:55:00,81.6,76.6,29.88,North,32767,-999.0,0.0,85,0.00,,,0.00,33,Wunderground v.1.15,2013-08-09 21:55:00,
2013-08-09 18:00:00,81.6,76.3,29.88,North,32767,-999.0,0.0,84,0.00,,,0.00,32,Wunderground v.1.15,2013-08-09 22:00:00,
2013-08-09 18:10:00,81.4,76.1,29.88,North,32767,-999.0,0.0,84,0.00,,,0.00,26,Wunderground v.1.15,2013-08-09 22:10:00,
2013-08-09 18:15:00,81.2,75.9,29.88,North,32767,-999.0,0.0,84,0.00,,,0.00,26,Wunderground v.1.15,2013-08-09 22:15:00,
2013-08-09 18:20:00,81.1,75.8,29.87,North,32767,-999.0,0.0,84,0.00,,,0.00,26,Wunderground v.1.15,2013-08-09 22:20:00,
2013-08-09 18:30:00,80.9,75.6,29.87,North,32767,-999.0,0.0,84,0.00,,,0.00,25,Wunderground v.1.15,2013-08-09 22:30:00,
2013-08-09 18:40:00,80.5,75.2,29.86,North,32767,-999.0,0.0,84,0.00,,,0.00,19,Wunderground v.1.15,2013-08-09 22:40:00,
2013-08-09 18:50:00,80.3,75.0,29.86,North,32767,-999.0,0.0,84,0.00,,,0.00,14,Wunderground v.1.15,2013-08-09 22:50:00,
2013-08-09 18:55:00,80.1,74.5,29.86,North,32767,-999.0,0.0,83,0.00,,,0.00,12,Wunderground v.1.15,2013-08-09 22:55:00,
2013-08-09 19:00:00,79.9,74.3,29.86,North,32767,-999.0,0.0,83,0.00,,,0.00,12,Wunderground v.1.15,2013-08-09 23:00:00,
2013-08-09 19:10:00,79.4,74.1,29.87,North,32767,-999.0,0.0,84,0.00,,,0.00,7,Wunderground v.1.15,2013-08-09 23:10:00,
2013-08-09 19:20:00,79.2,74.3,29.88,North,32767,-999.0,0.0,85,0.00,,,0.00,7,Wunderground v.1.15,2013-08-09 23:20:00,
2013-08-09 19:30:00,78.8,73.6,29.88,North,32767,-999.0,0.0,84,0.00,,,0.00,7,Wunderground v.1.15,2013-08-09 23:30:00,
2013-08-09 19:40:00,78.5,73.3,29.88,North,32767,-999.0,0.0,84,0.00,,,0.00,5,Wunderground v.1.15,2013-08-09 23:40:00,
2013-08-09 19:45:00,78.3,73.1,29.88,North,32767,-999.0,0.0,84,0.00,,,0.00,5,Wunderground v.1.15,2013-08-09 23:45:00,
2013-08-09 19:55:00,78.1,72.9,29.88,North,32767,-999.0,0.0,84,0.00,,,0.00,0,Wunderground v.1.15,2013-08-09 23:55:00,
2013-08-09 20:00:00,77.7,72.5,29.88,North,32767,-999.0,0.0,84,0.00,,,0.00,0,Wunderground v.1.15,2013-08-10 00:00:00,
2013-08-09 20:10:00,77.6,72.7,29.88,North,32767,-999.0,0.0,85,0.00,,,0.00,0,Wunderground v.1.15,2013-08-10 00:10:00,
2013-08-09 20:15:00,77.2,72.0,29.88,North,32767,-999.0,0.0,84,0.00,,,0.00,0,Wunderground v.1.15,2013-08-10 00:15:00,
2013-08-09 20:25:00,76.8,72.3,29.88,North,32767,-999.0,0.0,86,0.00,,,0.00,0,Wunderground v.1.15,2013-08-10 00:25:00,
2013-08-09 20:30:00,76.7,71.8,29.88,North,32767,-999.0,0.0,85,0.00,,,0.00,0,Wunderground v.1.15,2013-08-10 00:30:00,
2013-08-09 20:35:00,76.7,71.8,29.89,North,32767,-999.0,0.0,85,0.00,,,0.00,0,Wunderground v.1.15,2013-08-10 00:35:00,
2013-08-09 20:45:00,76.7,71.5,29.89,North,32767,-999.0,0.0,84,0.00,,,0.00,0,Wunderground v.1.15,2013-08-10 00:45:00,
2013-08-09 20:55:00,76.8,72.3,29.89,North,32767,-999.0,0.0,86,0.00,,,0.00,0,Wunderground v.1.15,2013-08-10 00:55:00,
2013-08-09 21:05:00,76.8,72.6,29.89,North,32767,-999.0,0.0,87,0.00,,,0.00,0,Wunderground v.1.15,2013-08-10 01:05:00,
2013-08-09 21:10:00,76.7,72.5,29.89,North,32767,-999.0,0.0,87,0.00,,,0.00,0,Wunderground v.1.15,2013-08-10 01:10:00,
2013-08-09 21:15:00,76.5,72.3,29.89,North,32767,-999.0,0.0,87,0.00,,,0.00,0,Wunderground v.1.15,2013-08-10 01:15:00,
2013-08-09 21:25:00,76.0,71.8,29.90,North,32767,-999.0,0.0,87,0.00,,,0.00,0,Wunderground v.1.15,2013-08-10 01:25:00,
2013-08-09 21:35:00,75.6,71.8,29.90,North,32767,-999.0,0.0,88,0.00,,,0.00,0,Wunderground v.1.15,2013-08-10 01:35:00,
2013-08-09 21:45:00,75.6,72.1,29.90,North,32767,-999.0,0.0,89,0.00,,,0.00,0,Wunderground v.1.15,2013-08-10 01:45:00,
2013-08-09 21:50:00,75.4,72.3,29.91,North,32767,-999.0,0.0,90,0.00,,,0.00,0,Wunderground v.1.15,2013-08-10 01:50:00,
2013-08-09 22:00:00,75.4,72.3,29.91,North,32767,-999.0,0.0,90,0.00,,,0.00,0,Wunderground v.1.15,2013-08-10 02:00:00,
2013-08-09 22:05:00,75.4,72.6,29.91,North,32767,-999.0,0.0,91,0.00,,,0.00,0,Wunderground v.1.15,2013-08-10 02:05:00,
2013-08-09 22:10:00,75.4,72.6,29.91,North,32767,-999.0,0.0,91,0.00,,,0.00,0,Wunderground v.1.15,2013-08-10 02:10:00,
2013-08-09 22:20:00,75.4,72.9,29.91,North,32767,-999.0,0.0,92,0.00,,,0.00,0,Wunderground v.1.15,2013-08-10 02:20:00,
2013-08-09 22:25:00,75.4,73.2,29.91,North,32767,-999.0,0.0,93,0.00,,,0.00,0,Wunderground v.1.15,2013-08-10 02:25:00,
2013-08-09 22:35:00,75.4,73.2,29.91,North,32767,-999.0,0.0,93,0.00,,,0.00,0,Wunderground v.1.15,2013-08-10 02:35:00,
2013-08-09 22:40:00,75.4,73.2,29.91,North,32767,-999.0,0.0,93,0.00,,,0.00,0,Wunderground v.1.15,2013-08-10 02:40:00,
2013-08-09 22:50:00,75.4,73.2,29.92,North,32767,-999.0,0.0,93,0.00,,,0.00,0,Wunderground v.1.15,2013-08-10 02:50:00,
2013-08-09 22:55:00,75.4,73.2,29.92,North,32767,-999.0,0.0,93,0.00,,,0.00,0,Wunderground v.1.15,2013-08-10 02:55:00,
2013-08-09 23:00:00,75.3,73.1,29.92,North,32767,-999.0,0.0,93,0.00,,,0.00,0,Wunderground v.1.15,2013-08-10 03:00:00,
2013-08-09 23:10:00,75.3,73.1,29.92,North,32767,-999.0,0.0,93,0.00,,,0.00,0,Wunderground v.1.15,2013-08-10 03:10:00,
2013-08-09 23:15:00,75.1,72.9,29.92,North,32767,-999.0,0.0,93,0.00,,,0.00,0,Wunderground v.1.15,2013-08-10 03:15:00,
2013-08-09 23:25:00,75.1,72.9,29.92,North,32767,-999.0,0.0,93,0.00,,,0.00,0,Wunderground v.1.15,2013-08-10 03:25:00,
2013-08-09 23:35:00,75.1,73.3,29.92,North,32767,-999.0,0.0,94,0.00,,,0.00,0,Wunderground v.1.15,2013-08-10 03:35:00,
2013-08-09 23:45:00,75.1,73.3,29.92,North,32767,-999.0,0.0,94,0.00,,,0.00,0,Wunderground v.1.15,2013-08-10 03:45:00,
2013-08-09 23:50:00,75.1,73.3,29.92,North,32767,-999.0,0.0,94,0.00,,,0.00,0,Wunderground v.1.15,2013-08-10 03:50:00,
2013-08-09 23:55:00,75.3,73.1,29.92,North,32767,-999.0,0.0,93,0.00,,,0.00,0,Wunderground v.1.15,2013-08-10 03:55:00,